星链-34718 (STARLINK-34718)

导读 | 豆包AI

STARLINK-34718是美国SpaceX公司于2025年7月26日发射的星链系列低轨通信卫星,属于Starlink全球互联网星座组成部分。它采用平板设计与太阳能电池阵,搭载Ku/Ka波段通信载荷,配备氪工质霍尔推进器,具备自主避撞能力,旨在为全球提供高速宽带互联网服务,寿命末期将主动离轨在大气层焚毁。

基本信息
目录编号:
64911
目录名称:
STARLINK-34718
国际标识:
2025-157H
轨道中心:
EARTH
卫星名称:
星链-34718
卫星全名:
星链-34718 (STARLINK-34718)
卫星状态:
在轨 (已飞行231 天)
发射日期:
2025-07-26 UTC
国别 :
美国 (US)
星等 :
--
轨道信息
数据来源 国际轨道数据
星历时间: 2026-03-14T06:51:17+0800
15小时前
查看轨道信息
半长轴: 6853.353km
偏心率: 0.0001215
轨道倾角: 53.159°
近地点辐角 68.601°
升交点赤经 326.070°
平近点角 291.512°
近地点: 474.383km
远地点: 476.049km
周期: 94.105分钟
每日圈数: 15.301998
详细信息
固有亮度:
5
最大亮度:
2.5
卫星平台:
Starlink V1.0
覆盖范围:
全球
运营商:
太空探索技术公司
运营商所在国:
美国
制造商(研发单位):
太空探索技术公司
制造商所在国:
美国
使用方式:
暂无
卫星简介
Starlink 计划是 SpaceX 推出的全球卫星互联网项目,通过发射低轨道卫星,为全球尤其是偏远地区提供高速、低延迟的互联网服务。自 2019 年起,Starlink 已部署数千颗卫星,旨在缩小全球数字鸿沟,推动互联网普及。该项目还为军事、航空等行业提供通信支持,带来广泛经济效益。
2D轨道图
3D轨道图
轨道高度分析图
轨道倾角分析图
轨道综合分析图
查看轨道综合分析图